Zurück zum Katalog

STARLINK-6337

AktivKommunikationVLEO
NORAD 56528·PAYLOAD·🇺🇸 United States

Gestartet May 14, 2023 von Cape Canaveral Space Force Station

Loading…

Nächste Überflüge (nächste 24 Stunden)

TLE

AktuellSource: CelesTrak SupGP

Epoche: Sep 15, 2026, 02:59 UTC

1 56528C 23065AB  26258.12479167 -.00019496  00000+0 -70631-3 0  2580
2 56528  43.0000 226.1728 0000712 256.5095 327.7875 15.27580328    16

Verfolge STARLINK-6337 in Echtzeit mit AllMySat

Download on the App Store